When you browse on this site, cookies collect data to enhance your experience and personalize the content and advertising you see.
Visit our Privacy Policy to learn more. By continuing to use the site, you agree to this use of cookies and data.
  • Em Portugal
  • Lista de países
  • Para 7 dias
  • Temperatura da água
  • Mapas de satélite
  • Mapa do tempo
  • Widgets de tempo
  • user-avatar
    Iniciar Sessão

    Previsão horária em Calguri

    Hoje, 24 Janeiro, Quinta-feira

    Tempo Temperatura Precipitação Vento Pressão Humidade
    00:00 +23°C° 0 mm 9 m/s 723 mmHg 34%
    01:00 +21°C° 0 mm 9 m/s 723 mmHg 41%
    02:00 +19°C° 0 mm 9 m/s 724 mmHg 50%
    03:00 +18°C° 0 mm 8 m/s 724 mmHg 54%
    04:00 +18°C° 0 mm 8 m/s 724 mmHg 58%
    05:00 +17°C° 0 mm 7 m/s 725 mmHg 62%
    06:00 +18°C° 0 mm 7 m/s 725 mmHg 58%
    07:00 +20°C° 0 mm 7 m/s 725 mmHg 55%
    08:00 +20°C° 0 mm 6 m/s 726 mmHg 54%
    09:00 +22°C° 0 mm 6 m/s 726 mmHg 47%
    10:00 +24°C° 0 mm 6 m/s 725 mmHg 41%
    11:00 +27°C° 0 mm 6 m/s 725 mmHg 35%
    12:00 +29°C° 0 mm 5 m/s 725 mmHg 31%
    13:00 +30°C° 0 mm 5 m/s 725 mmHg 28%
    14:00 +33°C° 0 mm 5 m/s 724 mmHg 24%
    15:00 +33°C° 0 mm 5 m/s 725 mmHg 23%
    16:00 +34°C° 0 mm 5 m/s 725 mmHg 23%
    17:00 +34°C° 0 mm 5 m/s 725 mmHg 22%
    18:00 +33°C° 0 mm 6 m/s 725 mmHg 25%
    19:00 +30°C° 0 mm 7 m/s 726 mmHg 28%
    20:00 +29°C° 0 mm 7 m/s 726 mmHg 31%
    21:00 +27°C° 0 mm 8 m/s 726 mmHg 37%
    22:00 +24°C° 0 mm 8 m/s 727 mmHg 43%
    23:00 +22°C° 0 mm 9 m/s 727 mmHg 49%

    Amanhã, 25 Janeiro, Sexta-feira

    Tempo Temperatura Precipitação Vento Pressão Humidade
    00:00 +21°C° 0 mm 8 m/s 727 mmHg 53%
    01:00 +20°C° 0 mm 8 m/s 727 mmHg 57%
    02:00 +18°C° 0 mm 8 m/s 727 mmHg 62%
    03:00 +17°C° 0 mm 7 m/s 727 mmHg 63%
    04:00 +17°C° 0 mm 7 m/s 728 mmHg 65%
    05:00 +16°C° 0 mm 6 m/s 728 mmHg 66%
    06:00 +17°C° 0 mm 6 m/s 728 mmHg 62%
    07:00 +19°C° 0 mm 6 m/s 729 mmHg 58%
    08:00 +20°C° 0 mm 6 m/s 729 mmHg 55%
    09:00 +22°C° 0 mm 5 m/s 729 mmHg 49%
    10:00 +25°C° 0 mm 5 m/s 729 mmHg 43%
    11:00 +27°C° 0 mm 5 m/s 729 mmHg 37%
    12:00 +28°C° 0 mm 4 m/s 728 mmHg 34%
    13:00 +30°C° 0 mm 4 m/s 728 mmHg 30%
    14:00 +31°C° 0 mm 3 m/s 727 mmHg 27%
    15:00 +33°C° 0 mm 3 m/s 727 mmHg 25%
    16:00 +32°C° 0 mm 2 m/s 727 mmHg 23%
    17:00 +34°C° 0 mm 2 m/s 726 mmHg 22%
    18:00 +32°C° 0 mm 2 m/s 727 mmHg 22%
    19:00 +33°C° 0 mm 3 m/s 727 mmHg 23%
    20:00 +32°C° 0 mm 4 m/s 727 mmHg 23%
    21:00 +30°C° 0 mm 5 m/s 728 mmHg 24%
    22:00 +29°C° 0 mm 6 m/s 728 mmHg 24%
    23:00 +29°C° 0 mm 8 m/s 728 mmHg 24%

    Depois de amanhã, 26 Janeiro, Sábado

    Tempo Temperatura Precipitação Vento Pressão Humidade
    00:00 +26°C° 0 mm 8 m/s 728 mmHg 34%
    01:00 +23°C° 0 mm 8 m/s 728 mmHg 43%
    02:00 +21°C° 0 mm 8 m/s 728 mmHg 52%
    03:00 +21°C° 0 mm 7 m/s 728 mmHg 55%
    04:00 +20°C° 0 mm 7 m/s 728 mmHg 57%
    05:00 +18°C° 0 mm 7 m/s 729 mmHg 60%
    06:00 +20°C° 0 mm 7 m/s 729 mmHg 58%
    07:00 +21°C° 0 mm 7 m/s 730 mmHg 55%
    08:00 +22°C° 0 mm 7 m/s 730 mmHg 53%
    09:00 +24°C° 0 mm 7 m/s 730 mmHg 46%
    10:00 +27°C° 0 mm 7 m/s 730 mmHg 40%
    11:00 +29°C° 0 mm 7 m/s 730 mmHg 34%
    12:00 +32°C° 0 mm 6 m/s 730 mmHg 30%
    13:00 +33°C° 0 mm 6 m/s 729 mmHg 27%
    14:00 +34°C° 0 mm 5 m/s 729 mmHg 23%
    15:00 +35°C° 0 mm 5 m/s 728 mmHg 22%
    16:00 +35°C° 0 mm 5 m/s 728 mmHg 20%
    17:00 +35°C° 0 mm 5 m/s 728 mmHg 18%
    18:00 +34°C° 0 mm 6 m/s 729 mmHg 18%
    19:00 +33°C° 0 mm 6 m/s 729 mmHg 17%
    20:00 +32°C° 0 mm 7 m/s 730 mmHg 17%
    21:00 +29°C° 0 mm 8 m/s 730 mmHg 25%
    22:00 +27°C° 0 mm 9 m/s 730 mmHg 33%
    23:00 +24°C° 0 mm 11 m/s 731 mmHg 41%

    27 Janeiro, Domingo

    Tempo Temperatura Precipitação Vento Pressão Humidade
    00:00 +22°C° 0 mm 10 m/s 731 mmHg 47%
    01:00 +21°C° 0 mm 9 m/s 730 mmHg 53%
    02:00 +18°C° 0 mm 8 m/s 730 mmHg 59%
    03:00 +18°C° 0 mm 7 m/s 730 mmHg 61%
    04:00 +18°C° 0 mm 7 m/s 730 mmHg 63%
    05:00 +17°C° 0 mm 6 m/s 730 mmHg 65%
    06:00 +19°C° 0 mm 6 m/s 731 mmHg 61%
    07:00 +20°C° 0 mm 6 m/s 731 mmHg 57%
    08:00 +21°C° 0 mm 6 m/s 731 mmHg 53%
    09:00 +23°C° 0 mm 5 m/s 731 mmHg 46%
    10:00 +26°C° 0 mm 5 m/s 731 mmHg 39%
    11:00 +28°C° 0 mm 4 m/s 731 mmHg 32%
    12:00 +30°C° 0 mm 4 m/s 730 mmHg 28%
    13:00 +32°C° 0 mm 4 m/s 730 mmHg 24%
    14:00 +33°C° 0 mm 4 m/s 729 mmHg 21%
    15:00 +34°C° 0 mm 4 m/s 729 mmHg 19%
    16:00 +34°C° 0 mm 4 m/s 728 mmHg 18%
    17:00 +34°C° 0 mm 4 m/s 728 mmHg 17%
    18:00 +33°C° 0 mm 4 m/s 728 mmHg 17%
    19:00 +33°C° 0 mm 3 m/s 729 mmHg 17%
    20:00 +31°C° 0 mm 3 m/s 729 mmHg 18%
    21:00 +30°C° 0 mm 4 m/s 729 mmHg 18%
    22:00 +29°C° 0 mm 4 m/s 730 mmHg 19%
    23:00 +29°C° 0 mm 5 m/s 730 mmHg 20%

    28 Janeiro, Segunda-feira

    Tempo Temperatura Precipitação Vento Pressão Humidade
    00:00 +28°C° 0 mm 4 m/s 729 mmHg 22%
    01:00 +27°C° 0 mm 4 m/s 729 mmHg 24%
    02:00 +26°C° 0 mm 4 m/s 729 mmHg 25%
    03:00 +25°C° 0 mm 4 m/s 729 mmHg 27%
    04:00 +25°C° 0 mm 3 m/s 729 mmHg 28%
    05:00 +24°C° 0 mm 3 m/s 729 mmHg 30%
    06:00 +25°C° 0 mm 4 m/s 729 mmHg 29%
    07:00 +27°C° 0 mm 4 m/s 730 mmHg 27%
    08:00 +28°C° 0 mm 5 m/s 730 mmHg 26%
    09:00 +30°C° 0 mm 4 m/s 730 mmHg 23%
    10:00 +32°C° 0 mm 4 m/s 730 mmHg 20%
    11:00 +34°C° 0 mm 4 m/s 729 mmHg 16%
    12:00 +35°C° 0 mm 3 m/s 729 mmHg 15%
    13:00 +35°C° 0 mm 3 m/s 728 mmHg 13%
    14:00 +36°C° 0 mm 2 m/s 728 mmHg 12%
    15:00 +37°C° 0 mm 2 m/s 727 mmHg 11%
    16:00 +37°C° 0 mm 2 m/s 727 mmHg 11%
    17:00 +37°C° 0 mm 2 m/s 727 mmHg 10%
    18:00 +36°C° 0 mm 3 m/s 727 mmHg 11%
    19:00 +35°C° 0 mm 3 m/s 727 mmHg 11%
    20:00 +35°C° 0 mm 3 m/s 727 mmHg 12%
    21:00 +34°C° 0 mm 4 m/s 727 mmHg 13%
    22:00 +33°C° 0 mm 4 m/s 727 mmHg 13%
    23:00 +33°C° 0 mm 5 m/s 728 mmHg 14%

    29 Janeiro, Terça-feira

    Tempo Temperatura Precipitação Vento Pressão Humidade
    00:00 +32°C° 0 mm 5 m/s 727 mmHg 15%
    01:00 +30°C° 0 mm 5 m/s 727 mmHg 16%
    02:00 +29°C° 0 mm 5 m/s 726 mmHg 17%
    03:00 +29°C° 0 mm 5 m/s 727 mmHg 18%
    04:00 +28°C° 0 mm 4 m/s 727 mmHg 19%
    05:00 +27°C° 0 mm 4 m/s 727 mmHg 20%
    06:00 +29°C° 0 mm 5 m/s 727 mmHg 18%
    07:00 +30°C° 0 mm 6 m/s 727 mmHg 17%
    08:00 +33°C° 0 mm 7 m/s 728 mmHg 15%
    09:00 +35°C° 0 mm 6 m/s 727 mmHg 14%
    10:00 +36°C° 0 mm 5 m/s 727 mmHg 13%
    11:00 +39°C° 0 mm 5 m/s 727 mmHg 11%
    12:00 +40°C° 0 mm 4 m/s 726 mmHg 10%
    13:00 +40°C° 0 mm 3 m/s 726 mmHg 9%
    14:00 +40°C° 0 mm 3 m/s 725 mmHg 8%
    15:00 +40°C° 0 mm 3 m/s 725 mmHg 8%
    16:00 +42°C° 0 mm 3 m/s 724 mmHg 8%
    17:00 +42°C° 0 mm 3 m/s 724 mmHg 8%
    18:00 +40°C° 0 mm 3 m/s 724 mmHg 8%
    19:00 +40°C° 0 mm 4 m/s 724 mmHg 9%
    20:00 +39°C° 0 mm 5 m/s 724 mmHg 9%
    21:00 +37°C° 0 mm 5 m/s 724 mmHg 10%
    22:00 +36°C° 0 mm 5 m/s 724 mmHg 11%
    23:00 +36°C° 0 mm 6 m/s 724 mmHg 12%
    Mostrar mais